Location: Praha
(50.0830°N, 14.4670°E)
Time: 04:46:45
(UTC+01:00)

ISS - Pass Details

Date: 01 December 2025
Orbit: 416 x 421 km, 51.6° (Epoch: 07 December)

Event Time Altitude Azimuth Distance (km) Brightness Sun altitude
Rises 16:46:10 0° 287° (WNW) 2,370 0.9 -6.8°
Reaches altitude 10° 16:48:20 10° 281° (W) 1,503 0.0 -7.2°
Maximum altitude 16:51:32 43° 209° (SSW) 604 -2.5 -7.6°
Drops below altitude 10° 16:54:44 10° 136° (SE) 1,493 -1.1 -8.1°
Sets 16:56:53 0° 130° (SE) 2,352 -0.2 -8.4°
